Date String (YYYY-MM-DD hh:mm:ss) UTC,Instrument flags,Ambient pressure (hPa),Sample flow (lpm),Bypass flow (lpm),Sample temperature (°C),Ambient temperature (°C),ASC tube jacket temperature (°C),LED temperature (°C),Box temperature (°C),Sample RH (%),Span deviation,Mass concentration (μg/m³),Mass concentration (μg/m³),Mass concentration (μg/m³)
DateTimeUTC,F1_M11,P_M11,Q1_M11,Q2_M11,T1_M11,T2_M11,T3_M11,T4_M11,T5_M11,U1_M11,ZSPAN_M11,X0_M11,X2_M11,X1_M11
2022-02-22 16:00:00,,0825.8,5.00,0.00,22.7,22.7,00.0,31.6,24.5,03.1,0002.2,0008.49,0004.67,0004.26
2022-02-22 16:01:00,,0825.8,5.00,0.00,22.7,22.3,00.0,31.6,24.4,03.1,0001.6,0008.55,0004.67,0004.25
2022-02-22 16:02:00,,0825.6,5.00,0.00,22.6,22.0,00.0,31.5,24.3,03.1,0000.0,0008.52,0004.66,0004.23
2022-02-22 16:03:00,,0825.6,5.00,0.00,22.6,21.7,00.0,31.5,24.2,03.1,0000.5,0008.57,0004.66,0004.22
2022-02-22 16:04:00,,0825.7,5.00,0.00,22.5,21.5,00.0,31.5,24.1,03.1,0000.4,0008.73,0004.71,0004.23
2022-02-22 16:05:00,,0825.8,5.01,0.00,22.4,21.3,00.0,31.5,24.0,03.1,0000.0,0008.70,0004.76,0004.25
2022-02-22 16:06:00,,0825.9,4.99,0.00,22.4,21.7,00.0,31.5,24.0,03.1,-000.4,0008.21,0004.80,0004.26
2022-02-22 16:07:00,,0826.0,5.01,0.00,22.6,22.6,00.0,31.5,24.3,03.2,-001.0,0008.36,0004.83,0004.26
2022-02-22 16:08:00,,0825.9,5.01,0.00,22.7,23.2,00.0,31.5,24.5,03.2,-000.9,0008.29,0004.82,0004.25
2022-02-22 16:09:00,,0825.9,5.00,0.00,22.7,23.1,00.0,31.6,24.6,03.2,-000.8,0008.23,0004.80,0004.25
2022-02-22 16:10:00,,0825.9,5.00,0.00,22.7,22.7,00.0,31.6,24.5,03.2,-001.2,0008.21,0004.78,0004.24
2022-02-22 16:11:00,,0825.8,5.00,0.00,22.7,22.3,00.0,31.6,24.4,03.1,-001.2,0008.09,0004.76,0004.22
2022-02-22 16:12:00,,0825.8,5.00,0.00,22.6,22.0,00.0,31.5,24.3,03.0,-000.8,0008.01,0004.75,0004.20
2022-02-22 16:13:00,,0826.0,5.00,0.00,22.6,21.7,00.0,31.5,24.2,03.0,-000.9,0008.02,0004.72,0004.16
2022-02-22 16:14:00,,0826.0,4.99,0.00,22.5,21.5,00.0,31.5,24.1,03.0,-001.0,0007.85,0004.62,0004.10
2022-02-22 16:15:00,,0826.0,4.99,0.00,22.5,21.4,00.0,31.5,24.1,03.0,-000.5,0007.75,0004.56,0004.06
2022-02-22 16:16:00,,0826.0,5.01,0.00,22.5,22.1,00.0,31.5,24.2,03.0,0000.2,0007.65,0004.48,0003.99
2022-02-22 16:17:00,,0826.0,4.99,0.00,22.6,22.9,00.0,31.5,24.4,03.0,0000.4,0007.46,0004.39,0003.95
2022-02-22 16:18:00,,0826.0,5.00,0.00,22.7,23.3,00.0,31.6,24.6,03.0,0000.7,0007.24,0004.33,0003.92
2022-02-22 16:19:00,,0825.9,5.00,0.00,22.8,23.0,00.0,31.6,24.6,02.9,0000.5,0007.01,0004.26,0003.88
2022-02-22 16:20:00,,0825.9,5.01,0.00,22.7,22.7,00.0,31.6,24.5,02.9,0000.6,0006.87,0004.21,0003.83
2022-02-22 16:21:00,,0825.8,5.01,0.00,22.7,22.3,00.0,31.6,24.4,03.0,0000.0,0006.69,0004.16,0003.79
2022-02-22 16:22:00,,0825.8,4.99,0.00,22.6,21.9,00.0,31.6,24.2,02.9,0000.0,0006.65,0004.15,0003.78
2022-02-22 16:23:00,,0825.8,4.99,0.00,22.5,21.6,00.0,31.5,24.1,02.9,0000.0,0006.54,0004.13,0003.77
2022-02-22 16:24:00,,0825.9,5.00,0.00,22.5,21.4,00.0,31.5,24.1,02.9,0000.0,0006.55,0004.15,0003.78
2022-02-22 16:25:00,,0825.9,5.01,0.00,22.4,21.6,00.0,31.5,24.0,02.9,0000.0,0006.65,0004.19,0003.80
2022-02-22 16:26:00,,0825.9,4.99,0.00,22.5,22.4,00.0,31.5,24.2,03.0,0000.0,0007.24,0004.20,0003.81
2022-02-22 16:27:00,,0825.9,5.02,0.00,22.7,23.1,00.0,31.5,24.5,03.0,0000.0,0007.21,0004.23,0003.85
2022-02-22 16:28:00,,0825.8,5.00,0.00,22.7,23.1,00.0,31.6,24.6,03.0,0000.0,0007.45,0004.31,0003.89
2022-02-22 16:29:00,,0825.8,4.99,0.00,22.7,22.6,00.0,31.6,24.5,03.1,0000.0,0007.61,0004.35,0003.92
2022-02-22 16:30:00,,0825.9,5.01,0.00,22.7,22.2,00.0,31.6,24.4,03.1,0000.9,0007.88,0004.40,0003.96
2022-02-22 16:31:00,,0825.9,5.00,0.00,22.6,21.9,00.0,31.5,24.3,03.0,0002.6,0007.97,0004.46,0004.01
2022-02-22 16:32:00,,0825.8,5.01,0.00,22.5,21.6,00.0,31.5,24.2,03.0,0001.9,0008.10,0004.53,0004.05
2022-02-22 16:33:00,,0825.7,4.99,0.00,22.5,21.3,00.0,31.5,24.1,03.0,0001.4,0008.13,0004.56,0004.09
2022-02-22 16:34:00,,0825.7,5.00,0.00,22.4,21.1,00.0,31.5,24.0,03.0,0001.2,0008.25,0004.60,0004.12
2022-02-22 16:35:00,,0825.7,5.01,0.00,22.4,21.8,00.0,31.5,24.0,03.0,0000.9,0008.34,0004.61,0004.15
2022-02-22 16:36:00,,0825.7,4.99,0.00,22.5,22.7,00.0,31.5,24.3,03.1,0001.0,0008.35,0004.62,0004.18
2022-02-22 16:37:00,,0825.7,5.01,0.00,22.7,23.3,00.0,31.5,24.5,03.1,0001.1,0008.10,0004.67,0004.21
2022-02-22 16:38:00,,0825.8,5.00,0.00,22.7,23.0,00.0,31.6,24.6,03.1,0001.1,0008.14,0004.70,0004.24
2022-02-22 16:39:00,,0825.8,4.99,0.00,22.7,22.7,00.0,31.6,24.5,03.1,0001.1,0008.23,0004.70,0004.28
2022-02-22 16:40:00,,0825.8,5.00,0.00,22.7,22.4,00.0,31.6,24.4,03.1,0000.3,0008.26,0004.73,0004.30
2022-02-22 16:41:00,,0825.7,5.00,0.00,22.6,22.1,00.0,31.5,24.3,03.1,0000.0,0008.12,0004.76,0004.32
2022-02-22 16:42:00,,0825.6,5.00,0.00,22.6,21.8,00.0,31.5,24.3,03.1,0000.0,0008.14,0004.76,0004.33
2022-02-22 16:43:00,,0825.7,5.00,0.00,22.5,21.6,00.0,31.5,24.2,03.1,0000.0,0008.29,0004.81,0004.34
2022-02-22 16:44:00,,0825.7,5.01,0.00,22.5,21.4,00.0,31.5,24.1,03.1,0000.0,0008.59,0004.86,0004.36
2022-02-22 16:45:00,,0825.7,5.00,0.00,22.5,21.9,00.0,31.5,24.1,03.2,0000.0,0008.95,0004.87,0004.38
2022-02-22 16:46:00,,0825.7,5.01,0.00,22.6,22.8,00.0,31.5,24.4,03.2,0000.0,0008.92,0004.91,0004.40
2022-02-22 16:47:00,,0825.7,5.00,0.00,22.7,23.5,00.0,31.6,24.7,03.2,0000.0,0008.92,0004.93,0004.41
2022-02-22 16:48:00,,0825.8,4.99,0.00,22.8,23.3,00.0,31.6,24.7,03.1,0000.0,0008.92,0004.93,0004.42
2022-02-22 16:49:00,,0825.7,5.01,0.00,22.8,22.9,00.0,31.6,24.6,03.1,0000.6,0009.28,0004.93,0004.42
2022-02-22 16:50:00,,0825.7,5.00,0.00,22.8,22.6,00.0,31.6,24.6,03.1,0000.8,0009.23,0004.90,0004.40
2022-02-22 16:51:00,,0825.7,5.00,0.00,22.7,22.2,00.0,31.6,24.5,03.1,0001.2,0009.13,0004.88,0004.40
2022-02-22 16:52:00,,0825.7,5.01,0.00,22.7,22.0,00.0,31.6,24.4,03.1,0001.3,0009.02,0004.87,0004.40
2022-02-22 16:53:00,,0825.7,5.00,0.00,22.6,21.8,00.0,31.6,24.3,03.1,0002.1,0009.01,0004.87,0004.41
2022-02-22 16:54:00,,0825.8,5.00,0.00,22.6,21.7,00.0,31.6,24.2,03.1,0002.6,0008.92,0004.84,0004.41
2022-02-22 16:55:00,,0825.8,4.99,0.00,22.5,21.5,00.0,31.5,24.1,03.1,0002.5,0008.67,0004.82,0004.42
2022-02-22 16:56:00,,0825.7,5.00,0.00,22.5,21.8,00.0,31.5,24.2,03.1,0001.5,0008.37,0004.84,0004.44
2022-02-22 16:57:00,,0825.8,5.01,0.00,22.6,22.7,00.0,31.6,24.4,03.1,0000.0,0008.29,0004.83,0004.44
2022-02-22 16:58:00,,0825.9,5.01,0.00,22.8,23.5,00.0,31.6,24.7,03.1,0000.0,0008.29,0004.83,0004.44
2022-02-22 16:59:00,,0825.9,5.00,0.00,22.8,23.3,00.0,31.6,24.7,03.1,0000.0,0008.35,0004.87,0004.46
